Fort Collins, CO

9:31 PM MDT on September 27, 2016 (GMT -0600)
Fort Collins-Loveland Municipal

Weather History for KFNL - March, 2012

Change the Weather History Date:

Saturday, March 10, 2012

  Actual Average Record
Temperature  
Mean Temperature 48 °F -  
Max Temperature 69 °F - 69 °F (2011)
Min Temperature 26 °F - 10 °F (2009)
Degree Days  
Heating Degree Days 18    
Month to date heating degree days  
Cooling Degree Days 0    
Month to date cooling degree days  
Moisture  
Dew Point 20 °F    
Average Humidity 39    
Maximum Humidity 81    
Minimum Humidity 15    
Precipitation  
Precipitation 0.00 in - 6.02 in (2001)
Sea Level Pressure  
Sea Level Pressure 29.98 in    
Wind  
Wind Speed 5 mph (ESE)    
Max Wind Speed 16 mph    
Max Gust Speed 23 mph    
Visibility 10 miles    
Events      
T = Trace of Precipitation, MM = Missing Value Source: NWS Daily Summary

Daily Weather History Graph

Daily Weather History Graph

Search for Another Location

Airport or City:

Trip Planner

Search our weather history database for the weather conditions in past years. The results will help you decide how hot, cold, wet, or windy it might be!

Date:

Astronomy

Mar. 10, 2012 Rise Set
Actual Time 6:18 AM MST 6:02 PM MST
Civil Twilight 5:51 AM MST 6:29 PM MST
Nautical Twilight 5:20 AM MST 7:00 PM MST
Astronomical Twilight 4:48 AM MST 7:32 PM MST
Moon 9:18 PM MST (3/10) 7:14 AM MST (3/10)
Length of Visible Light 12h 37m
Length of Day
11h 43m
Waning Gibbous, 92% of the Moon is Illuminated
Mar 10
Waning Gibbous
Mar 14
Last Quarter
Mar 22
New
Mar 30
First Quarter
Apr 6
Full

Hourly Weather History & Observations

Time (MST) Temp. Windchill Dew Point Humidity Pressure Visibility Wind Dir Wind Speed Gust Speed Precip Events Conditions
12:15 AM 33.8 °F 27.7 °F 10.4 °F 38% 30.14 in 10.0 mi NNE 6.9 mph - N/A   Clear
12:35 AM 28.4 °F - 8.6 °F 43% 30.14 in 10.0 mi Calm Calm - N/A   Clear
12:55 AM 32.0 °F - 12.2 °F 44% 30.13 in 10.0 mi Calm Calm - N/A   Clear
1:15 AM 32.0 °F - 12.2 °F 44% 30.12 in 10.0 mi Calm Calm - N/A   Clear
1:35 AM 32.0 °F - 12.2 °F 44% 30.11 in 10.0 mi Calm Calm - N/A   Clear
1:55 AM 30.2 °F 26.7 °F 12.2 °F 47% 30.11 in 10.0 mi ENE 3.5 mph - N/A   Clear
2:15 AM 32.0 °F 25.6 °F 12.2 °F 44% 30.10 in 10.0 mi East 6.9 mph - N/A   Clear
2:35 AM 30.2 °F 25.4 °F 12.2 °F 47% 30.10 in 10.0 mi SE 4.6 mph - N/A   Clear
2:55 AM 32.0 °F 28.7 °F 12.2 °F 44% 30.08 in 10.0 mi ESE 3.5 mph - N/A   Clear
3:15 AM 30.2 °F 24.3 °F 10.4 °F 44% 30.08 in 10.0 mi SSE 5.8 mph - N/A   Clear
3:35 AM 30.2 °F 25.4 °F 10.4 °F 44% 30.08 in 10.0 mi South 4.6 mph - N/A   Clear
3:55 AM 26.6 °F - 10.4 °F 51% 30.07 in 10.0 mi Calm Calm - N/A   Clear
4:15 AM 28.4 °F - 10.4 °F 47% 30.07 in 10.0 mi Calm Calm - N/A   Clear
4:35 AM 26.6 °F 21.2 °F 15.8 °F 64% 30.07 in 10.0 mi NNE 4.6 mph - N/A   Clear
4:55 AM 26.6 °F 21.2 °F 15.8 °F 64% 30.07 in 10.0 mi NNE 4.6 mph - N/A   Clear
5:35 AM 26.6 °F 21.2 °F 15.8 °F 64% 30.06 in 10.0 mi North 4.6 mph - N/A   Clear
5:55 AM 30.2 °F 25.4 °F 14.0 °F 51% 30.06 in 10.0 mi NNE 4.6 mph - N/A   Clear
6:15 AM 28.4 °F 23.3 °F 12.2 °F 51% 30.06 in 10.0 mi NNE 4.6 mph - N/A   Clear
6:35 AM 26.6 °F - 12.2 °F 55% 30.05 in 10.0 mi Calm Calm - N/A   Clear
7:15 AM 28.4 °F 22.2 °F 17.6 °F 64% 30.04 in 10.0 mi NNW 5.8 mph - N/A   Partly Cloudy
7:35 AM 30.2 °F 26.7 °F 17.6 °F 60% 30.04 in 10.0 mi North 3.5 mph - N/A   Clear
7:55 AM 33.8 °F - 17.6 °F 52% 30.04 in 10.0 mi Calm Calm - N/A   Clear
8:15 AM 39.2 °F - 17.6 °F 42% 30.04 in 10.0 mi Calm Calm - N/A   Clear
8:35 AM 39.2 °F 37.0 °F 17.6 °F 42% 30.04 in 10.0 mi North 3.5 mph - N/A   Clear
8:55 AM 42.8 °F 41.1 °F 17.6 °F 36% 30.03 in 10.0 mi NNE 3.5 mph - N/A   Clear
9:15 AM 44.6 °F - 17.6 °F 34% 30.03 in 10.0 mi Calm Calm - N/A   Clear
9:35 AM 46.4 °F 45.2 °F 17.6 °F 32% 30.03 in 10.0 mi ESE 3.5 mph - N/A   Clear
9:55 AM 48.2 °F - 17.6 °F 30% 30.03 in 10.0 mi Calm Calm - N/A   Clear
10:15 AM 51.8 °F - 19.4 °F 28% 30.02 in 10.0 mi Calm Calm - N/A   Clear
10:35 AM 51.8 °F - 19.4 °F 28% 30.02 in 10.0 mi SSE 5.8 mph - N/A   Clear
10:55 AM 55.4 °F - 19.4 °F 25% 30.01 in 10.0 mi SSE 8.1 mph - N/A   Clear
11:15 AM 55.4 °F - 19.4 °F 25% 30.00 in 10.0 mi Calm Calm - N/A   Clear
11:35 AM 57.2 °F - 19.4 °F 23% 29.99 in 10.0 mi Calm Calm - N/A   Clear
11:55 AM 59.0 °F - 19.4 °F 22% 29.98 in 10.0 mi SE 3.5 mph - N/A   Clear
12:15 PM 62.6 °F - 21.2 °F 20% 29.97 in 10.0 mi ESE 5.8 mph - N/A   Clear
12:35 PM 62.6 °F - 19.4 °F 19% 29.96 in 10.0 mi SSE 6.9 mph - N/A   Clear
12:55 PM 64.4 °F - 17.6 °F 16% 29.94 in 10.0 mi SSE 5.8 mph - N/A   Clear
1:15 PM 66.2 °F - 19.4 °F 17% 29.93 in 10.0 mi SE 6.9 mph - N/A   Clear
1:35 PM 66.2 °F - 17.6 °F 15% 29.91 in 10.0 mi SE 5.8 mph - N/A   Clear
1:55 PM 66.2 °F - 17.6 °F 15% 29.90 in 10.0 mi ESE 8.1 mph - N/A   Clear
2:15 PM 66.2 °F - 19.4 °F 17% 29.89 in 10.0 mi ESE 8.1 mph - N/A   Clear
2:35 PM 68.0 °F - 19.4 °F 16% 29.88 in 10.0 mi SSE 6.9 mph - N/A   Clear
2:55 PM 68.0 °F - 19.4 °F 16% 29.88 in 10.0 mi SE 3.5 mph - N/A   Clear
3:15 PM 68.0 °F - 21.2 °F 17% 29.86 in 10.0 mi ESE 8.1 mph - N/A   Clear
3:35 PM 69.8 °F - 23.0 °F 17% 29.85 in 10.0 mi SE 13.8 mph 18.4 mph N/A   Clear
3:55 PM 69.8 °F - 24.8 °F 18% 29.84 in 10.0 mi SE 16.1 mph - N/A   Clear
4:15 PM 66.2 °F - 26.6 °F 23% 29.84 in 10.0 mi SE 16.1 mph 23.0 mph N/A   Clear
4:55 PM 64.4 °F - 26.6 °F 24% 29.84 in 10.0 mi SE 12.7 mph - N/A   Clear
5:15 PM 64.4 °F - 28.4 °F 26% 29.84 in 10.0 mi SE 13.8 mph - N/A   Clear
5:35 PM 62.6 °F - 28.4 °F 27% 29.84 in 10.0 mi SE 11.5 mph - N/A   Clear
5:55 PM 59.0 °F - 28.4 °F 31% 29.84 in 10.0 mi SE 10.4 mph - N/A   Clear
6:15 PM 55.4 °F - 28.4 °F 36% 29.84 in 10.0 mi SE 10.4 mph - N/A   Clear
6:55 PM 53.6 °F - 30.2 °F 41% 29.84 in 10.0 mi ESE 11.5 mph - N/A   Clear
7:15 PM 53.6 °F - 28.4 °F 38% 29.84 in 10.0 mi ESE 12.7 mph - N/A   Clear
8:15 PM 48.2 °F - 30.2 °F 50% 29.84 in 10.0 mi SE 13.8 mph 20.7 mph N/A   Clear
8:35 PM 46.4 °F 41.1 °F 33.8 °F 62% 29.84 in 10.0 mi SE 11.5 mph - N/A   Clear
8:55 PM 46.4 °F 41.5 °F 33.8 °F 62% 29.85 in 10.0 mi SSE 10.4 mph - N/A   Clear
9:15 PM 44.6 °F 40.7 °F 33.8 °F 66% 29.85 in 10.0 mi SSE 6.9 mph - N/A   Clear
9:35 PM 42.8 °F 40.1 °F 33.8 °F 70% 29.86 in 10.0 mi NNE 4.6 mph - N/A   Clear
10:35 PM 39.2 °F - 32.0 °F 75% 29.86 in 10.0 mi Calm Calm - N/A   Clear
10:55 PM 41.0 °F 38.0 °F 35.6 °F 81% 29.86 in 10.0 mi WNW 4.6 mph - N/A   Clear
11:15 PM 41.0 °F 36.4 °F 33.8 °F 76% 29.86 in 10.0 mi North 6.9 mph - N/A   Clear
11:35 PM 39.2 °F 34.2 °F 33.8 °F 81% 29.85 in 10.0 mi NNW 6.9 mph - N/A   Clear
11:55 PM 39.2 °F 33.6 °F 33.8 °F 81% 29.85 in 10.0 mi NNW 8.1 mph - N/A   Clear